Terminal Aerodrome Forecast
Issued by NWS

Home | Current Version | Previous Version | Text Only | Print | Product List | Glossary On
Versions: 1 2 3 4 5 6 7 8 9 10 11 12
000
FTUS46 KSTO 152300
TAFSCK
TAF
KSCK 152320Z 1600/1624 30011KT P6SM SKC
     FM160800 34006KT P6SM SKC
     FM161900 30009KT P6SM SKC=

USA.gov is the U.S. government's official web portal to all federal, state and local government web resources and services.